Time,TemperatureF,DewpointF,PressureIn,WindDirection,WindDirectionDegrees,WindSpeedMPH,WindSpeedGustMPH,Humidity,HourlyPrecipIn,Conditions,Clouds,dailyrainin,SoftwareType,DateUTC
2013-08-10 00:04:00,76.4,56.0,29.96,East,93,0.0,-999.0,49,-99.99,,,0.00,weatherlink.com 1.10,2013-08-10 06:04:00,
2013-08-10 00:19:00,76.1,55.0,29.97,East,93,0.0,-999.0,49,-99.99,,,0.00,weatherlink.com 1.10,2013-08-10 06:19:00,
2013-08-10 00:34:00,75.8,56.0,29.97,East,93,0.0,-999.0,50,-99.99,,,0.00,weatherlink.com 1.10,2013-08-10 06:34:00,
2013-08-10 00:49:00,75.6,57.0,29.97,East,93,0.0,-999.0,52,-99.99,,,0.00,weatherlink.com 1.10,2013-08-10 06:49:00,
2013-08-10 01:04:00,75.4,58.0,29.97,East,93,0.0,-999.0,55,-99.99,,,0.00,weatherlink.com 1.10,2013-08-10 07:04:00,
2013-08-10 01:19:00,75.3,57.0,29.97,East,93,0.0,-999.0,54,-99.99,,,0.00,weatherlink.com 1.10,2013-08-10 07:19:00,
2013-08-10 01:34:00,75.1,58.0,29.97,East,93,0.0,-999.0,56,-99.99,,,0.00,weatherlink.com 1.10,2013-08-10 07:34:00,
2013-08-10 01:49:00,74.6,58.0,29.97,East,93,0.0,-999.0,57,-99.99,,,0.00,weatherlink.com 1.10,2013-08-10 07:49:00,
2013-08-10 02:04:00,74.3,59.0,29.97,East,93,0.0,-999.0,59,-99.99,,,0.00,weatherlink.com 1.10,2013-08-10 08:04:00,
2013-08-10 02:19:00,73.9,59.0,29.97,East,93,0.0,-999.0,61,-99.99,,,0.00,weatherlink.com 1.10,2013-08-10 08:19:00,
2013-08-10 02:34:00,73.8,60.0,29.97,East,93,0.0,-999.0,63,-99.99,,,0.00,weatherlink.com 1.10,2013-08-10 08:34:00,
2013-08-10 02:49:00,73.9,61.0,29.98,East,93,0.0,-999.0,65,-99.99,,,0.00,weatherlink.com 1.10,2013-08-10 08:49:00,
2013-08-10 03:04:00,73.8,62.0,29.98,East,93,0.0,-999.0,67,-99.99,,,0.00,weatherlink.com 1.10,2013-08-10 09:04:00,
2013-08-10 03:19:00,73.7,63.0,29.98,East,93,0.0,-999.0,69,-99.99,,,0.00,weatherlink.com 1.10,2013-08-10 09:19:00,
2013-08-10 03:34:00,73.5,64.0,29.98,East,93,0.0,-999.0,71,-99.99,,,0.00,weatherlink.com 1.10,2013-08-10 09:34:00,
2013-08-10 03:49:00,73.2,64.0,29.97,East,93,0.0,-999.0,72,-99.99,,,0.00,weatherlink.com 1.10,2013-08-10 09:49:00,
2013-08-10 04:04:00,72.4,62.0,29.97,East,93,0.0,-999.0,70,-99.99,,,0.00,weatherlink.com 1.10,2013-08-10 10:04:00,
2013-08-10 04:19:00,72.0,62.0,29.96,East,93,0.0,-999.0,70,-99.99,,,0.00,weatherlink.com 1.10,2013-08-10 10:19:00,
2013-08-10 04:34:00,71.5,62.0,29.97,East,93,0.0,-999.0,71,-99.99,,,0.00,weatherlink.com 1.10,2013-08-10 10:34:00,
2013-08-10 04:49:00,71.3,61.0,29.97,East,93,0.0,-999.0,70,-99.99,,,0.00,weatherlink.com 1.10,2013-08-10 10:49:00,
2013-08-10 05:04:00,71.0,62.0,29.97,East,93,0.0,-999.0,73,-99.99,,,0.00,weatherlink.com 1.10,2013-08-10 11:04:00,
2013-08-10 05:19:00,70.7,62.0,29.97,East,93,0.0,-999.0,74,-99.99,,,0.00,weatherlink.com 1.10,2013-08-10 11:19:00,
2013-08-10 05:34:00,70.4,62.0,29.98,East,93,0.0,-999.0,74,-99.99,,,0.00,weatherlink.com 1.10,2013-08-10 11:34:00,
2013-08-10 05:49:00,70.1,62.0,29.98,East,93,0.0,-999.0,75,-99.99,,,0.00,weatherlink.com 1.10,2013-08-10 11:49:00,
2013-08-10 06:04:00,70.1,63.0,29.98,East,93,0.0,-999.0,77,-99.99,,,0.00,weatherlink.com 1.10,2013-08-10 12:04:00,
2013-08-10 06:19:00,70.1,62.0,29.99,East,93,0.0,-999.0,76,-99.99,,,0.00,weatherlink.com 1.10,2013-08-10 12:19:00,
2013-08-10 06:34:00,70.4,63.0,29.99,East,93,0.0,-999.0,77,-99.99,,,0.00,weatherlink.com 1.10,2013-08-10 12:34:00,
2013-08-10 06:49:00,71.0,64.0,30.00,East,93,0.0,-999.0,79,-99.99,,,0.00,weatherlink.com 1.10,2013-08-10 12:49:00,
2013-08-10 07:04:00,72.0,66.0,30.00,East,93,0.0,-999.0,80,-99.99,,,0.00,weatherlink.com 1.10,2013-08-10 13:04:00,
2013-08-10 07:19:00,74.8,67.0,30.00,East,93,0.0,-999.0,77,-99.99,,,0.00,weatherlink.com 1.10,2013-08-10 13:19:00,
2013-08-10 07:34:00,77.0,68.0,30.00,East,93,0.0,-999.0,73,-99.99,,,0.00,weatherlink.com 1.10,2013-08-10 13:34:00,
2013-08-10 07:49:00,78.7,68.0,30.01,East,93,0.0,-999.0,69,-99.99,,,0.00,weatherlink.com 1.10,2013-08-10 13:49:00,
2013-08-10 08:04:00,80.5,67.0,30.01,East,93,0.0,-999.0,63,-99.99,,,0.00,weatherlink.com 1.10,2013-08-10 14:04:00,
2013-08-10 08:19:00,82.0,67.0,30.01,East,92,0.0,-999.0,60,-99.99,,,0.00,weatherlink.com 1.10,2013-08-10 14:19:00,
2013-08-10 08:34:00,83.2,67.0,30.01,SSW,211,0.0,-999.0,58,-99.99,,,0.00,weatherlink.com 1.10,2013-08-10 14:34:00,
2013-08-10 08:49:00,84.6,67.0,30.02,SSW,213,0.0,-999.0,56,-99.99,,,0.00,weatherlink.com 1.10,2013-08-10 14:49:00,
2013-08-10 09:04:00,85.5,68.0,30.02,NW,305,2.0,-999.0,56,-99.99,,,0.00,weatherlink.com 1.10,2013-08-10 15:04:00,
2013-08-10 09:19:00,86.6,69.0,30.02,SE,142,4.0,-999.0,56,-99.99,,,0.00,weatherlink.com 1.10,2013-08-10 15:19:00,
2013-08-10 09:34:00,87.4,69.0,30.02,SSE,148,0.0,-999.0,54,-99.99,,,0.00,weatherlink.com 1.10,2013-08-10 15:34:00,
2013-08-10 09:49:00,89.2,69.0,30.02,SE,136,0.0,-999.0,52,-99.99,,,0.00,weatherlink.com 1.10,2013-08-10 15:49:00,
2013-08-10 10:04:00,90.1,69.0,30.02,SE,137,0.0,-999.0,50,-99.99,,,0.00,weatherlink.com 1.10,2013-08-10 16:04:00,
2013-08-10 10:19:00,91.2,69.0,30.03,ESE,114,3.0,-999.0,48,-99.99,,,0.00,weatherlink.com 1.10,2013-08-10 16:19:00,
2013-08-10 10:34:00,91.7,67.0,30.03,NNW,332,0.0,-999.0,45,-99.99,,,0.00,weatherlink.com 1.10,2013-08-10 16:34:00,
2013-08-10 10:49:00,92.7,68.0,30.02,WNW,300,0.0,-999.0,44,-99.99,,,0.00,weatherlink.com 1.10,2013-08-10 16:49:00,
2013-08-10 11:04:00,92.8,68.0,30.02,East,92,0.0,-999.0,44,-99.99,,,0.00,weatherlink.com 1.10,2013-08-10 17:04:00,
2013-08-10 11:19:00,93.2,68.0,30.02,NNW,339,4.0,-999.0,43,-99.99,,,0.00,weatherlink.com 1.10,2013-08-10 17:19:00,
2013-08-10 11:34:00,94.6,67.0,30.02,ESE,123,0.0,-999.0,41,-99.99,,,0.00,weatherlink.com 1.10,2013-08-10 17:34:00,
2013-08-10 11:49:00,95.7,67.0,30.01,NNE,18,1.0,-999.0,39,-99.99,,,0.00,weatherlink.com 1.10,2013-08-10 17:49:00,
2013-08-10 12:04:00,95.6,68.0,30.00,SE,128,3.0,-999.0,41,-99.99,,,0.00,weatherlink.com 1.10,2013-08-10 18:04:00,
2013-08-10 12:19:00,95.9,66.0,30.00,NNE,32,0.0,-999.0,38,-99.99,,,0.00,weatherlink.com 1.10,2013-08-10 18:19:00,
2013-08-10 12:34:00,96.6,68.0,29.99,East,84,1.0,-999.0,39,-99.99,,,0.00,weatherlink.com 1.10,2013-08-10 18:34:00,
2013-08-10 12:49:00,97.2,67.0,29.99,SE,138,0.0,-999.0,37,-99.99,,,0.00,weatherlink.com 1.10,2013-08-10 18:49:00,
2013-08-10 13:04:00,96.6,67.0,29.98,North,7,1.0,-999.0,38,-99.99,,,0.00,weatherlink.com 1.10,2013-08-10 19:04:00,
2013-08-10 13:19:00,95.9,66.0,29.98,NNW,331,0.0,-999.0,38,-99.99,,,0.00,weatherlink.com 1.10,2013-08-10 19:19:00,
2013-08-10 13:34:00,96.7,65.0,29.97,NW,321,0.0,-999.0,35,-99.99,,,0.00,weatherlink.com 1.10,2013-08-10 19:34:00,
2013-08-10 13:50:00,97.9,66.0,29.97,ENE,71,1.0,-999.0,35,-99.99,,,0.00,weatherlink.com 1.10,2013-08-10 19:50:00,
2013-08-10 14:04:00,98.8,65.0,29.96,East,84,3.0,-999.0,33,-99.99,,,0.00,weatherlink.com 1.10,2013-08-10 20:04:00,
2013-08-10 14:19:00,98.9,63.0,29.96,East,85,0.0,-999.0,31,-99.99,,,0.00,weatherlink.com 1.10,2013-08-10 20:19:00,
2013-08-10 14:34:00,99.0,63.0,29.95,SE,135,5.0,-999.0,31,-99.99,,,0.00,weatherlink.com 1.10,2013-08-10 20:34:00,
2013-08-10 14:49:00,97.8,62.0,29.94,North,352,0.0,-999.0,31,-99.99,,,0.00,weatherlink.com 1.10,2013-08-10 20:49:00,
2013-08-10 15:04:00,98.6,64.0,29.94,ESE,115,4.0,-999.0,32,-99.99,,,0.00,weatherlink.com 1.10,2013-08-10 21:04:00,
2013-08-10 15:19:00,96.1,64.0,29.93,SE,136,3.0,-999.0,35,-99.99,,,0.00,weatherlink.com 1.10,2013-08-10 21:19:00,
2013-08-10 15:34:00,94.6,65.0,29.94,ESE,115,7.0,-999.0,38,-99.99,,,0.00,weatherlink.com 1.10,2013-08-10 21:34:00,
2013-08-10 15:49:00,94.5,65.0,29.94,SSE,147,6.0,-999.0,38,-99.99,,,0.00,weatherlink.com 1.10,2013-08-10 21:49:00,
2013-08-10 16:04:00,93.7,64.0,29.93,SE,130,2.0,-999.0,38,-99.99,,,0.00,weatherlink.com 1.10,2013-08-10 22:04:00,
2013-08-10 16:19:00,92.8,65.0,29.93,ENE,77,0.0,-999.0,40,-99.99,,,0.00,weatherlink.com 1.10,2013-08-10 22:19:00,
2013-08-10 16:34:00,93.2,65.0,29.92,SE,126,0.0,-999.0,39,-99.99,,,0.00,weatherlink.com 1.10,2013-08-10 22:34:00,
2013-08-10 16:49:00,94.0,65.0,29.92,ENE,61,2.0,-999.0,38,-99.99,,,0.00,weatherlink.com 1.10,2013-08-10 22:49:00,
2013-08-10 17:04:00,93.8,65.0,29.92,NNE,23,0.0,-999.0,38,-99.99,,,0.00,weatherlink.com 1.10,2013-08-10 23:04:00,
2013-08-10 17:19:00,93.9,65.0,29.91,ESE,123,1.0,-999.0,38,-99.99,,,0.00,weatherlink.com 1.10,2013-08-10 23:19:00,
2013-08-10 17:34:00,94.6,65.0,29.91,SSE,157,0.0,-999.0,38,-99.99,,,0.00,weatherlink.com 1.10,2013-08-10 23:34:00,
2013-08-10 17:49:00,95.8,65.0,29.92,North,1,1.0,-999.0,36,-99.99,,,0.00,weatherlink.com 1.10,2013-08-10 23:49:00,
2013-08-10 18:04:00,94.5,64.0,29.92,SE,139,0.0,-999.0,37,-99.99,,,0.00,weatherlink.com 1.10,2013-08-11 00:04:00,
2013-08-10 18:19:00,93.8,65.0,29.92,SE,146,0.0,-999.0,38,-99.99,,,0.00,weatherlink.com 1.10,2013-08-11 00:19:00,
2013-08-10 18:34:00,93.5,65.0,29.93,SE,128,0.0,-999.0,39,-99.99,,,0.00,weatherlink.com 1.10,2013-08-11 00:34:00,
2013-08-10 18:49:00,91.7,69.0,29.94,ESE,115,4.0,-999.0,47,-99.99,,,0.00,weatherlink.com 1.10,2013-08-11 00:49:00,
2013-08-10 19:05:00,87.6,68.0,29.95,SSE,148,1.0,-999.0,53,-99.99,,,0.00,weatherlink.com 1.10,2013-08-11 01:05:00,
2013-08-10 19:20:00,86.0,68.0,29.96,ESE,109,2.0,-999.0,55,-99.99,,,0.00,weatherlink.com 1.10,2013-08-11 01:20:00,
2013-08-10 19:35:00,84.5,70.0,29.96,ESE,109,0.0,-999.0,62,-99.99,,,0.00,weatherlink.com 1.10,2013-08-11 01:35:00,
2013-08-10 19:50:00,83.4,69.0,29.96,ESE,117,0.0,-999.0,62,-99.99,,,0.00,weatherlink.com 1.10,2013-08-11 01:50:00,
2013-08-10 20:05:00,83.4,69.0,29.97,SE,134,0.0,-999.0,62,-99.99,,,0.00,weatherlink.com 1.10,2013-08-11 02:05:00,
2013-08-10 20:20:00,83.3,69.0,29.99,SE,127,0.0,-999.0,62,-99.99,,,0.00,weatherlink.com 1.10,2013-08-11 02:20:00,
2013-08-10 20:35:00,83.3,69.0,30.00,SSE,154,0.0,-999.0,62,-99.99,,,0.00,weatherlink.com 1.10,2013-08-11 02:35:00,
2013-08-10 20:50:00,83.1,69.0,30.00,South,180,0.0,-999.0,63,-99.99,,,0.00,weatherlink.com 1.10,2013-08-11 02:50:00,
2013-08-10 21:05:00,82.7,69.0,30.00,East,95,0.0,-999.0,64,-99.99,,,0.00,weatherlink.com 1.10,2013-08-11 03:05:00,
2013-08-10 21:20:00,82.4,69.0,30.00,East,95,0.0,-999.0,65,-99.99,,,0.00,weatherlink.com 1.10,2013-08-11 03:20:00,
2013-08-10 21:50:00,81.6,70.0,30.02,East,95,0.0,-999.0,67,-99.99,,,0.00,weatherlink.com 1.10,2013-08-11 03:50:00,
2013-08-10 22:05:00,81.4,69.0,30.02,East,95,0.0,-999.0,67,-99.99,,,0.00,weatherlink.com 1.10,2013-08-11 04:05:00,
2013-08-10 22:20:00,81.2,70.0,30.02,East,95,0.0,-999.0,68,-99.99,,,0.00,weatherlink.com 1.10,2013-08-11 04:20:00,
2013-08-10 22:35:00,80.8,70.0,30.02,East,95,0.0,-999.0,69,-99.99,,,0.00,weatherlink.com 1.10,2013-08-11 04:35:00,
2013-08-10 22:50:00,80.3,69.0,30.01,East,95,0.0,-999.0,69,-99.99,,,0.00,weatherlink.com 1.10,2013-08-11 04:50:00,
2013-08-10 23:20:00,79.5,69.0,30.00,East,95,0.0,-999.0,71,-99.99,,,0.00,weatherlink.com 1.10,2013-08-11 05:20:00,
2013-08-10 23:35:00,79.0,69.0,30.00,East,95,0.0,-999.0,72,-99.99,,,0.00,weatherlink.com 1.10,2013-08-11 05:35:00,
2013-08-10 23:50:00,78.7,69.0,30.01,East,95,0.0,-999.0,72,-99.99,,,0.00,weatherlink.com 1.10,2013-08-11 05:50:00,